Regional Weather Roundup
Issued by NWS Charleston, SC

Current Version | Previous Version | Text Only | Print | Product List | Glossary On
Versions: 1 2 3 4 5 6 7 8 9 10 11 12 13 14 15 16 17 18 19 20 21 22 23 24 25 26 27 28 29 30 31 32 33 34 35 36 37 38 39 40 41 42 43 44 45 46 47 48 49 50
000
ASUS42 KCHS 040725
RWRCHS

Regional Weather Roundup
National Weather Service Charleston SC
300 AM EDT TUE OCT 04 2022

NOTE: "fair" indicates few or no clouds below 12,000 feet with no
significant weather and/or obstructions to visibility.

Not all stations are quality controlled. Use data with caution,
especially dewpoint observations.

SCZ027-030-031-034>040-042>050-040800-
...Southeast South Carolina...

CITY           SKY/WX    TMP DP  RH WIND       PRES   REMARKS
N Charleston   CLEAR     53  48  83 N7        30.08S
Waterfront Prk   N/A     59  51  75 N9        29.94S
Mount Pleasant FAIR      54  52  94 CALM      30.08S
Johns Island   FAIR      55  50  82 N9        30.08S
Pinopolis        N/A     59  52  77 N14         N/A
Moncks Corner  FAIR      55  45  67 N7        30.09S
Summerville    FAIR      52  52 100 N5        30.09S
Beaufort MCAS  CLEAR     55  52  89 CALM      30.09F
Beaufort Arpt  FAIR      55  54  94 N5        30.08F
Hilton Head Is CLEAR     61  54  77 NE7G13    30.09F
Walterboro     SUNNY     50  50 100 N6        30.11S
Allendale      FAIR      52  52 100 CALM      30.10S

...Southern Midlands and Pee Dee...

CITY           SKY/WX    TMP DP  RH WIND       PRES   REMARKS
Georgetown     FAIR      50  48  93 N6        30.08F
Kingstree      FAIR      48  43  81 CALM      30.10S
Orangeburg     CLEAR     52  51  97 CALM      30.11S
Barnwell       FAIR      52  50  93 NE5       30.12R
Aiken          FAIR      47  46  95 CALM      30.12S
Manning        FAIR      46  45  93 CALM      30.11S
Columbia       CLEAR     54  49  83 CALM      30.11S
Sumter         CLEAR     49  43  82 NE3       30.10S
Florence       CLEAR     50  45  83 N6        30.10F
Myrtle Beach   MOCLDY    52  50  93 N7        30.08S
N Myrtle Beach PTCLDY    50  48  93 N6        30.06F

$$

GAZ063-065-086>088-099>101-113>116-118-119-134>141-150-040800-
...Southeast Georgia...

CITY           SKY/WX    TMP DP  RH WIND       PRES   REMARKS
Savannah Arpt  CLEAR     51  50  96 CALM      30.09F FOG
Hunter AAF     CLEAR     53  52  97 N2        30.06F
Fort Stewart   CLEAR     50  49  94 N5        30.06F
Statesboro     CLEAR     49  47  95 CALM      30.10S
Sylvania       SUNNY     46  44  94 CALM      30.11S
Claxton        FAIR      50  49  97 CALM      30.10S FOG
Millen         FAIR      49  47  95 N5        30.11F
Metter         FAIR      50 N/A N/A CALM      30.10S
Reidsville     FOG       48 N/A N/A CALM      30.09F VSB 1/4

...CSRA, Central and far Southeast Georgia...

CITY           SKY/WX    TMP DP  RH WIND       PRES   REMARKS
Thomson        CLEAR     50  49  95 CALM      30.13S
Augusta-Bush   FOG       48  47  96 CALM      30.11S VSB 1
Augusta-Daniel CLEAR     57  50  77 NE6       30.12S
Swainsboro     FAIR      50  50 100 CALM      30.11F
Vidalia        CLEAR     54  52  94 CALM      30.10S
Eastman        FAIR      45  45 100 CALM      30.11S
Hazlehurst     FOG       53  52  98 CALM      30.09S VSB 3/4
Alma           CLEAR     52  50  93 CALM      30.09S
Waycross       CLEAR     54  53  96 CALM      30.08F
Jesup          FAIR      55  52  88 CALM      30.10F
Baxley         FOG       48  48 100 CALM      30.09S VSB 1/2
Brunswick      CLEAR     59  55  86 N7        30.06F
Saint Simons   CLOUDY    62  55  77 N8        30.05F

$$

SCZ027-028-034-036>038-045-046-048>050-GAZ119-141-040800-
...Lake and Supplemental Coastal Observations...

STATION/POSITION TIME  TEMP    WIND        PRES    WAVE   SWELL
                       AIR SEA DIR/SP/G            HT/PER HT/PER/DIR
                 (UTC) (F)     (DEG/KT/KT) (MB)    (FT/S) (FT/S/D)
Winyah Bay       0645   53     330/  2     1019.0S
Lake Murray      0720   54      CALM  /  2   N/A
Chrlstn Harbor   0648   58 70  350/  7/ 11 1017.1F
ACE Basin NERRS  0645   54        CALM     1020.0F
Fort Pulaski     0648   60 70   10/  5/  6 1019.0F
Sapelo Island    0700   61      10/  9     1018.0

$$

ANZ835-935-AMZ111-154-330-350-352-354-370-450-454-472-040800-
...C-MAN and Buoy Observations...

STATION/POSITION TIME  TEMP    WIND        PRES    WAVE   SWELL
                       AIR SEA DIR/SP/G            HT/PER HT/PER/DIR
                 (UTC) (F)     (DEG/KT/KT) (MB)    (FT/S) (FT/S/D)
Buoy 41004       0710   65 78  360/ 16/ 21 1016.8
Buoy 41008       0650   68 75   40/ 21/ 25 1016.7F   6/ 6
Folly Beach CMAN 0700   58     360/ 11/ 14 1018.7F
Chas Pilot Buoy  0608   63 73   20/ 16/ 25 1017.7F
Chas Pilot Wave  NOT AVBL
Capers Nearshore NOT AVBL
Capers NS Wave   NOT AVBL
Fripp Nearshore  NOT AVBL


STATION/POSITION TIME  TEMP    WIND        PRES    WAVE   SWELL
                       AIR SEA DIR/SP/G            HT/PER HT/PER/DIR
                 (UTC) (F)     (DEG/KT/KT) (MB)    (FT/S) (FT/S/D)
5E St. Marys GA  0700   70 75                N/A     5/ 5
Frying Pan Buoy  0710   60 78  360/ 12/ 17 1016.4
Buoy 41025       0700          340/ 21/ 27 1013.6
Cape Lookout NC  0700   53     340/ 16/ 19 1016.7F
Buoy 41002       0710   74 80  340/ 12/ 17 1010.9
Buoy 41010       0700   76      30/ 14/ 17 1012.7
St Augustine FL  0700   70 76   10/ 20/ 21 1016.3F


$$



USA.gov is the U.S. government's official web portal to all federal, state and local government web resources and services.